RADUGA 7 1 12003U 80081A 21062.43724480 .00000090 00000-0 00000-0 0 9995 2 12003 10.4802 309.6297 0008213 265.0202 293.9573 1.00305040103937 SL-12 R/B(2) 1 12447U 80081F 21062.83538955 .00000095 00000-0 00000+0 0 9995 2 12447 10.6883 310.3776 0006453 29.0367 149.1780 0.99966840145111